TimeMST,TemperatureF,Dew PointF,Humidity,Sea Level PressureIn,VisibilityMPH,Wind Direction,Wind SpeedMPH,Gust SpeedMPH,PrecipitationIn,Events,Conditions,WindDirDegrees,DateUTC
12:53 AM,54.0,28.0,37,29.96,10.0,SSE,3.5,-,N/A,,Clear,150,2011-11-24 07:53:00
1:53 AM,53.1,28.9,40,29.95,10.0,Calm,Calm,-,N/A,,Clear,0,2011-11-24 08:53:00
2:53 AM,50.0,30.9,48,29.95,10.0,SSE,4.6,-,N/A,,Clear,150,2011-11-24 09:53:00
3:53 AM,48.0,30.0,50,29.94,10.0,SSE,8.1,-,N/A,,Clear,160,2011-11-24 10:53:00
4:53 AM,51.1,30.0,44,29.94,10.0,SSE,5.8,-,N/A,,Clear,160,2011-11-24 11:53:00
5:53 AM,50.0,30.2,47,30.03,10.0,South,4.6,-,N/A,,Clear,170,2011-11-24 12:53:00
6:53 AM,53.1,28.9,40,29.95,10.0,SE,8.1,-,N/A,,Clear,140,2011-11-24 13:53:00
7:53 AM,50.0,30.9,48,29.99,10.0,South,6.9,-,N/A,,Clear,170,2011-11-24 14:53:00
8:53 AM,54.0,32.0,43,30.01,10.0,SE,3.5,-,N/A,,Clear,130,2011-11-24 15:53:00
9:53 AM,66.9,28.0,23,29.99,10.0,ESE,4.6,-,N/A,,Scattered Clouds,120,2011-11-24 16:53:00
10:53 AM,72.0,21.9,15,29.96,10.0,Calm,Calm,-,N/A,,Mostly Cloudy,0,2011-11-24 17:53:00
11:53 AM,75.0,21.0,13,29.93,10.0,NE,3.5,-,N/A,,Partly Cloudy,50,2011-11-24 18:53:00
12:53 PM,75.2,24.8,15,29.99,10.0,Calm,Calm,-,N/A,,Clear,0,2011-11-24 19:53:00
1:53 PM,73.9,35.1,24,29.88,10.0,West,5.8,-,N/A,,Partly Cloudy,260,2011-11-24 20:53:00
2:18 PM,75.2,42.8,31,29.95,10.0,South,15.0,-,N/A,,Clear,180,2011-11-24 21:18:00
2:53 PM,73.9,46.0,37,29.85,10.0,South,18.4,-,N/A,,Clear,190,2011-11-24 21:53:00
3:53 PM,72.0,48.0,43,29.85,10.0,South,12.7,-,N/A,,Clear,190,2011-11-24 22:53:00
4:53 PM,66.9,36.0,32,29.86,10.0,North,9.2,-,N/A,,Mostly Cloudy,10,2011-11-24 23:53:00
5:53 PM,64.4,35.6,34,29.95,10.0,Calm,Calm,-,N/A,,Mostly Cloudy,0,2011-11-25 00:53:00
6:53 PM,63.0,37.0,38,29.89,10.0,WNW,10.4,-,N/A,,Mostly Cloudy,290,2011-11-25 01:53:00
7:53 PM,60.1,48.0,64,29.95,10.0,NW,12.7,21.9,N/A,,Overcast,310,2011-11-25 02:53:00
8:53 PM,60.8,48.2,63,30.01,10.0,NW,3.5,-,N/A,,Overcast,310,2011-11-25 03:53:00
9:53 PM,59.0,46.9,64,29.93,10.0,North,5.8,-,0.00,,Overcast,360,2011-11-25 04:53:00
10:53 PM,55.9,50.0,80,29.94,7.0,WNW,12.7,18.4,0.01,Rain,Rain,300,2011-11-25 05:53:00
11:08 PM,53.6,50.0,88,30.04,10.0,WNW,12.7,20.7,0.00,Rain,Light Rain,290,2011-11-25 06:08:00
11:53 PM,53.1,52.0,96,29.95,10.0,NNW,8.1,-,0.04,Rain,Light Rain,340,2011-11-25 06:53:00